Location: Forst
(46.9333°N, 15.4333°E)
Time: 06:05:19
(UTC+00:00)

H-2A R/B - Pass Details

Date: 01 December 2020
Orbit: 733 x 836 km, 98.2° (Epoch: 18 January)

Event Time Altitude Azimuth Distance (km) Brightness Sun altitude
Enters shadow 17:28:12 - 155° (SSE) 3,350 5.2 -22.6°
Exits shadow 17:35:27 62° 98° (E) 887 2.0 -23.9°
Maximum altitude 17:35:51 64° 72° (ENE) 869 1.9 -23.9°
Drops below altitude 10° 17:40:55 10° 352° (N) 2,324 4.5 -24.8°
Sets 17:43:13 0° 350° (N) 3,240 5.3 -25.2°
